Погода в Харовске

Россия / Вологодская область     59°57′02″N   40°12′22″E
темп.,
°C
ветер,
м/с
пор.,
м/с
влажн.,
%
обл.,
%
осадки,
мм/ч
давл.,
гПа
погр.,
м
13 апреля, вт
вт1300:00+7ююв41592100 0.0 1030621
03:00+6ююв41394100 0.0 1029515
06:00+6ююв41098100 0.0 1027434
09:00+7ююв41196100 0.0 1026436
12:00+11ю41083100 0.0 1024615
15:00+14ююз4107399 0.0 1023989
18:00+13ю2782100 0.0 1022213
21:00+9ю2892100 0.0 1022144
14 апреля, ср
ср1400:00+8ю2994100 0.0 1022179
03:00+7ю3109254 0.1 1021192
06:00+7ю311865 0.0 1020241
09:00+12ю4127084 0.0 1019411
12:00+15ююз5106097 0.0 1018715
15:00+16ююз51058100 0.0 10171097
18:00+14ююз41065100 0.0 1017430
21:00+10зсз2588100 0.0 1018164
15 апреля, чт
чт1500:00+7ссз379399 0.4 1020370
03:00+6с3789100 0.4 1021460
06:00+5ссв378399 0.0 1022470
09:00+6ссв467499 0.0 1023603
12:00+8ссв455947 0.0 10241054
15:00+9ссв454850 0.0 10241385
18:00+7ссв46568 0.0 10251034
21:00+3св3106911 0.0 1027341
16 апреля, пт
пт1600:00+1св29765 0.0 1028243
03:00−1св27805 0.0 1028160
06:000св28755 0.0 1029212
09:00+5св35505 0.0 1029758
12:00+8ссв34415 0.0 10291347
15:00+9ссв35375 0.0 10291545
18:00+8ссв36455 0.0 1029730
21:00+3ссв26714 0.0 1031116
17 апреля, сб
сб1700:00+1ссв28854 0.0 1032197
03:000ссв29924 0.0 1034220
06:000ссв398538 0.0 1036325
09:00+4св36495 0.0 1036919
12:00+7ссв34395 0.0 10361383
15:00+8с343944 0.0 10351529
18:00+8с254996 0.0 1035497
21:00+3с126980 0.0 103510